sat.trackr.live / text

‹ back to catalog

STARLINK-4454

NORAD 53499 · 2022-099AL

PAYLOAD ACTIVE UNKNOWN

§ Identity

Operator
Country
US
Launch date
2022-08-12
Launch site
AFWTR
Launch vehicle
Mass (kg)
RCS (m²)

Purposes: comms

External: N2YO · Heavens-Above · Gunter

§ Orbital elements

Epoch: 2026-09-20T04:00:03.000096Z

Period
90.50 min
Inclination
97.6009°
Eccentricity
0.0001280
Mean motion
15.91085702 rev/d
Perigee alt
298.4 km
Apogee alt
300.1 km
Semi-major
6,677.4 km
B*
1.4243e-3
RAAN
32.6128°
Arg perigee
86.0673°
Mean anomaly
71.3299°
Rev number
600

§ Raw data

STARLINK-44541 53499U 22099AL  26263.16670139  .00446414  78093-4  14243-2 0  99942 53499  97.6009  32.6128 0001280  86.0673  71.3299 15.91085702  6001

JSON: /api/v1/satellites/53499 · /tle

For live sub-satellite position, see the globe view (requires WebGL).

§ Visibility from observer

Set your observer location to see the next 7 days of passes ≥ 10°. The values pass through the URL so the page stays shareable.

No JS? Fill the form by hand. The geolocation button needs JavaScript.